Location: Chuathbaluk
(61.5726°N, 159.2454°W)
Time: 23:12:41
(UTC+00:00)

Transit 2A - Pass Details

Date: 29 November 2020
Orbit: 598 x 960 km, 66.7° (Epoch: 20 January)

Event Time Altitude Azimuth Distance (km) Brightness Sun altitude
Rises 07:11:14 0° 259° (W) 3,577 10.1 -38.1°
Reaches altitude 10° 07:13:54 10° 264° (W) 2,598 9.2 -38.3°
Enters shadow 07:16:50 28° 275° (W) 1,592 8.0 -38.6°
Maximum altitude 07:19:52 58° 343° (NNW) 993 - -39.0°
Drops below altitude 10° 07:25:19 10° 63° (ENE) 2,374 - -39.5°
Sets 07:27:40 0° 67° (ENE) 3,247 - -39.7°
